カタログに戻る

DELTA 1 DEB

運用中PO
NORAD 21550·DEBRIS·🇺🇸 United States

打ち上げ Jun 12, 1975 から Vandenberg Space Force Base

Loading…

次のパス (今後24時間)

TLE

最新Source: Space-Track

元期: Sep 14, 2026, 11:49 UTC

1 21550U 75052HE  26257.49255966  .00000150  00000-0  74868-3 0  9992
2 21550  99.8373 137.3419 0541993 175.6012 312.7283 12.46040229603583

AllMySatでDELTA 1 DEBをリアルタイム追跡

Download on the App Store